Location: Exeidioux
(45.6312°N, 1.6819°E)
Time: 13:03:26
(UTC+00:00)

Lacrosse 4 Rocket - Pass Details

Date: 03 March 2021
Orbit: 537 x 620 km, 68.0° (Epoch: 11 April)

Event Time Altitude Azimuth Distance (km) Brightness Sun altitude
Rises 19:09:40 0° 180° (S) 2,811 4.9 -15.9°
Reaches altitude 10° 19:12:06 10° 168° (SSE) 1,930 3.9 -16.3°
Enters shadow 19:14:34 24° 138° (SE) 1,262 2.7 -16.8°
